Weather History for Port Angeles, WA

Change the Weather History Date:

Sunday, October 27, 2013

  Actual Average Record
Temperature  
Mean Temperature 50 °F -  
Max Temperature 57 °F 53 °F 64 °F (1973)
Min Temperature 46 °F 41 °F 29 °F (1970)
Degree Days  
Heating Degree Days 14    
Moisture  
Dew Point 45 °F    
Average Humidity 84    
Maximum Humidity 97    
Minimum Humidity 44    
Precipitation  
Precipitation 0.13 in - - ()
Sea Level Pressure  
Sea Level Pressure 30.02 in    
Wind  
Wind Speed 5 mph (SW)    
Max Wind Speed 12 mph    
Max Gust Speed 23 mph    
Visibility 9 miles    
Events Rain    
Averages and records for this station are not official NWS values.
T = Trace of Precipitation, MM = Missing Value Source: NWS Daily Summary

Daily Weather History Graph

Daily Weather History Graph

Search for Another Location

Airport:

Trip Planner

Search our weather history database for the weather conditions in past years. The results will help you decide how hot, cold, wet, or windy it might be!

Date:

Astronomy

Oct. 27, 2013 Rise Set
Actual Time 7:52 AM PDT 6:02 PM PDT
Civil Twilight 7:19 AM PDT 6:35 PM PDT
Nautical Twilight 6:43 AM PDT 7:11 PM PDT
Astronomical Twilight 6:07 AM PDT 7:47 PM PDT
Moon 12:24 AM PDT (10/27) 2:42 PM PDT (10/27)
Length of Visible Light 11h 15m
Length of Day
10h 10m
Last Quarter, 42% of the Moon is Illuminated
Oct 27
Last Quarter
Nov 3
New
Nov 9
First Quarter
Nov 17
Full
Nov 25
Last Quarter

Hourly Weather History & Observations

Time (PDT) Temp. Windchill Dew Point Humidity Pressure Visibility Wind Dir Wind Speed Gust Speed Precip Events Conditions
12:53 AM 48.9 °F - 45.0 °F 86% 30.16 in 10.0 mi West 4.6 mph - N/A   Overcast
1:53 AM 50.0 °F - 45.0 °F 83% 30.12 in 10.0 mi West 5.8 mph - N/A   Overcast
2:53 AM 50.0 °F - 44.1 °F 80% 30.09 in 10.0 mi West 8.1 mph - N/A   Overcast
3:24 AM 46.0 °F - 43.0 °F 89% 30.08 in 10.0 mi Calm Calm - N/A   Scattered Clouds
3:53 AM 46.0 °F 43.9 °F 43.0 °F 89% 30.07 in 10.0 mi WSW 4.6 mph - N/A   Mostly Cloudy
4:05 AM 48.9 °F - 44.1 °F 83% 30.05 in 10.0 mi SW 6.9 mph - N/A   Overcast
4:53 AM 46.9 °F - 43.0 °F 86% 29.94 in 10.0 mi WSW 10.4 mph - N/A   Scattered Clouds
5:43 AM 50.0 °F - 46.0 °F 86% 30.03 in 10.0 mi NW 10.4 mph - N/A   Overcast
5:53 AM 50.0 °F - 46.9 °F 89% 30.04 in 3.0 mi NW 10.4 mph - 0.02 in Rain Light Rain
6:08 AM 48.9 °F - 48.0 °F 97% 30.03 in 1.8 mi NNW 4.6 mph 18.4 mph 0.04 in Rain Rain
6:16 AM 48.9 °F - 48.0 °F 97% 30.02 in 2.0 mi Variable 3.5 mph - 0.05 in Rain Light Rain
6:25 AM 48.0 °F - 46.9 °F 96% 30.01 in 4.0 mi Calm Calm - 0.05 in Rain Light Rain
6:42 AM 48.9 °F - 46.9 °F 93% 29.99 in 10.0 mi Calm Calm - 0.05 in   Overcast
6:53 AM 48.0 °F - 46.9 °F 96% 29.99 in 9.0 mi East 3.5 mph - 0.05 in   Overcast
7:26 AM 48.9 °F - 46.9 °F 93% 29.97 in 10.0 mi South 5.8 mph - 0.00 in   Overcast
7:53 AM 48.9 °F - 46.9 °F 93% 29.99 in 3.0 mi North 3.5 mph - 0.04 in Rain Rain
8:03 AM 48.9 °F - 46.9 °F 93% 29.98 in 5.0 mi Calm Calm - 0.01 in Rain Light Rain
8:26 AM 48.9 °F - 46.9 °F 93% 29.99 in 7.0 mi SW 4.6 mph - 0.01 in Rain Light Rain
8:53 AM 50.0 °F - 48.0 °F 93% 30.01 in 10.0 mi SW 5.8 mph - 0.02 in   Overcast
9:53 AM 50.0 °F - 46.0 °F 86% 30.02 in 10.0 mi SSW 6.9 mph - N/A   Mostly Cloudy
10:53 AM 53.1 °F - 45.0 °F 74% 30.01 in 10.0 mi South 3.5 mph - N/A   Partly Cloudy
11:53 AM 54.0 °F - 46.9 °F 77% 30.00 in 10.0 mi SSW 5.8 mph - N/A   Overcast
12:53 PM 51.1 °F - 48.0 °F 89% 30.00 in 10.0 mi NNW 5.8 mph - N/A   Overcast
1:53 PM 52.0 °F - 48.0 °F 86% 29.99 in 10.0 mi West 4.6 mph - N/A   Overcast
2:53 PM 53.1 °F - 48.0 °F 83% 29.98 in 10.0 mi Calm Calm - N/A   Mostly Cloudy
3:53 PM 53.1 °F - 48.0 °F 83% 29.98 in 10.0 mi South 4.6 mph - N/A   Overcast
4:53 PM 53.1 °F - 48.0 °F 83% 29.99 in 10.0 mi SSE 3.5 mph - N/A   Overcast
5:53 PM 52.0 °F - 48.0 °F 86% 29.99 in 10.0 mi SW 3.5 mph - N/A   Overcast
6:53 PM 51.1 °F - 46.9 °F 86% 30.01 in 10.0 mi Calm Calm - N/A   Overcast
7:53 PM 51.1 °F - 46.0 °F 83% 30.02 in 10.0 mi Calm Calm - N/A   Overcast
8:53 PM 50.0 °F - 46.0 °F 86% 30.03 in 10.0 mi Calm Calm - N/A   Overcast
9:53 PM 55.9 °F - 37.9 °F 51% 30.02 in 10.0 mi East 10.4 mph 21.9 mph N/A   Mostly Cloudy
10:53 PM 55.9 °F - 37.0 °F 49% 30.02 in 10.0 mi East 9.2 mph - N/A   Overcast
11:53 PM 55.9 °F - 34.0 °F 44% 30.02 in 10.0 mi East 11.5 mph 23.0 mph N/A   Scattered Clouds